Regional Weather Roundup
Issued by NWS Kansas City/Pleasant Hill, MO

Home | Current Version | Previous Version | Text Only | Print | Product List | Glossary On
Versions: 1 2 3 4 5 6 7 8 9 10 11 12 13 14 15 16 17 18 19 20 21 22 23 24 25 26 27 28 29 30 31 32 33 34 35 36 37 38 39 40 41 42 43 44 45 46 47 48 49 50
589
ASUS43 KEAX 221010
RWREAX

WEATHER ROUNDUP FOR EASTERN KANSAS AND NORTHWEST MISSOURI
NATIONAL WEATHER SERVICE KANSAS CITY/PLEASANT HILL MO
400 AM CST WED FEB 22 2017

KSZ040-057-103>105-MOZ028-029-037-043-221100-
...KANSAS CITY METROPOLITAN AREA...

CITY           SKY/WX    TMP DP  RH WIND       PRES   REMARKS
K.C. INTL      PTCLDY    47  36  65 S12       29.80F
K.C. DOWNTOWN  CLEAR     45  38  76 CALM      29.80F
LEES SUMMIT    CLEAR     51  46  83 S12       29.82F
OLATHE - IXD   CLEAR     41  36  82 S9        29.83S
OLATHE - OJC   CLEAR     45  39  79 S5        29.82S
LAWRENCE       CLEAR     35  30  82 CALM      29.82F

$$

MOZ001>008-011>017-020>025-030>033-038>040-044>046-053-054-221100-
...NORTHERN AND CENTRAL MISSOURI...

CITY           SKY/WX    TMP DP  RH WIND       PRES   REMARKS
ST. JOSEPH     CLEAR     45  35  68 S6        29.79F
WARRENSBURG    CLEAR     46  45  93 S6        29.83S
WHITEMAN AFB   CLEAR     48  48 100 S8        29.83S FOG
CLINTON        FOG       48  48 100 CALM      29.85S VSB 1/4
SEDALIA        FOG       50  49  96 S6        29.85F VSB 1/2
WARSAW         NOT AVBL
CHILLICOTHE      N/A     45  43  93 S5        29.82F
KIRKSVILLE     CLEAR     51  51 100 SW8       29.81F FOG

$$

MOZ041-047>049-056>058-063>065-088>090-097-221100-
...EASTERN AND SOUTHERN MISSOURI...

CITY           SKY/WX    TMP DP  RH WIND       PRES   REMARKS
ST. LOUIS INTL PTCLDY    52  49  89 CALM      29.86F FOG
SPIRIT OF STL  FOG       50  50 100 CALM      29.86F VSB 1/4
COLUMBIA       FOG       50  50 100 S6        29.85F VSB 1/4
JEFFERSON CITY FOG       48  48 100 E6        29.86F VSB 1/4
ROLLA          FOG       54  54 100 SW9       29.86F VSB 1/4
OSAGE BEACH    LGT RAIN  51  51 100 S6        29.88F VSB 1/4
SPRINGFIELD    FOG       55  55 100 S8        29.87F VSB 3/4
BRANSON        CLOUDY    54  54 100 CALM      29.90F FOG
JOPLIN         CLEAR     49  49 100 S8        29.87F
WEST PLAINS    CLOUDY    55  54  96 CALM      29.89F FOG

$$

IAZ060-094-KSZ022-034>040-054-083-096-NEZ052-066-093-221100-
...KANSAS...SOUTHEAST NEBRASKA AND IOWA...

CITY           SKY/WX    TMP DP  RH WIND       PRES   REMARKS
TOPEKA         CLEAR     47  34  60 S5        29.79F
MANHATTAN      MOCLDY    48  37  65 S3        29.79S
EMPORIA        PTCLDY    46  33  60 CALM      29.82F
CHANUTE        CLEAR     40  37  89 S7        29.84F
WICHITA        CLEAR     41  36  82 S9        29.83F
OMAHA          CLEAR     46  34  62 S13       29.70F
LINCOLN        CLEAR     45  34  65 SE8       29.74F
FALLS CITY     CLEAR     50  34  54 S8        29.75F
LAMONI         CLEAR     46  35  65 S12       29.77F
DES MOINES     CLEAR     51  32  48 SW9       29.73F

$$





USA.gov is the U.S. government's official web portal to all federal, state and local government web resources and services.